Simultaneous Nadir Overpasses (SNOs) Predictions

Prediction of SNOs between GOES-15 and TERRA Satellite Orbit:

Table of predicted SNOs for the next 14.0 days since TLE Epoch: 8/9/2014
Index Date Time (GOES-15) GOES-15 Lat,Lon TERRA Lat,Lon Distance(km) Time Diff (sec)
1 08/09/2014 07:43:15 -0.13,-135.49 -0.62,-137.80 262.65 80
2 08/11/2014 07:28:25 -0.12,-135.48 -0.01,-134.85 71.56 80
3 08/13/2014 07:16:16 -0.11,-135.47 0.67,-131.91 405.43 80
4 08/13/2014 19:40:10 0.14,-135.48 0.48,-137.06 179.84 80
5 08/15/2014 19:25:20 0.13,-135.46 -0.16,-134.11 153.62 80
6 08/16/2014 07:49:24 -0.16,-135.44 -0.98,-139.29 437.93 80
7 08/17/2014 19:13:11 0.13,-135.43 -0.80,-131.16 486.74 80
8 08/18/2014 07:37:14 -0.16,-135.42 -0.33,-136.34 104.94 80
9 08/20/2014 07:22:23 -0.15,-135.39 0.26,-133.38 227.66 80
10 08/20/2014 19:46:18 0.18,-135.39 0.88,-138.53 357.90 80
11 08/22/2014 19:34:08 0.18,-135.36 0.21,-135.59 25.82 80




NCC Satellite Simultaneous Nadir Overpasses (SNOs) Prediction Service
